QPF
0.04 0.05 0.06 0.08 0.11 0.11 0.09 0.08 0.07 0.06 0.07 0.10 0.12 0.11 0.10 0.13 0.13 0.11 0.12 0.09 0.10 0.17 0.18 0.10 0.08 0.08 0.10 0.12 0.12 0.11 0.10 0.10 0.08 0.10 0.07 0.08 0.09 0.09 0.11 0.10 0.08 0.05 0.07
0.03 0.04 0.04 0.06 0.09 0.10 0.08 0.08 0.08 0.06 0.07 0.10 0.12 0.12 0.13 0.16 0.17 0.11 0.08 0.08 0.07 0.14 0.20 0.11 0.09 0.10 0.12 0.14 0.12 0.11 0.11 0.13 0.11 0.10 0.08 0.10 0.11 0.12 0.14 0.11 0.10 0.06 0.07
0.02 0.02 0.03 0.06 0.08 0.08 0.08 0.09 0.09 0.07 0.08 0.12 0.15 0.15 0.15 0.14 0.17 0.12 0.09 0.10 0.12 0.19 0.15 0.09 0.09 0.10 0.10 0.12 0.12 0.12 0.14 0.21 0.14 0.11 0.12 0.13 0.11 0.12 0.12 0.10 0.11 0.09 0.07
0.03 0.03 0.02 0.05 0.07 0.06 0.08 0.13 0.16 0.13 0.10 0.14 0.18 0.17 0.20 0.17 0.14 0.14 0.13 0.13 0.14 0.17 0.10 0.08 0.08 0.07 0.08 0.09 0.10 0.11 0.15 0.19 0.15 0.12 0.12 0.12 0.12 0.12 0.12 0.12 0.11 0.11 0.08
0.01 0.02 0.03 0.05 0.07 0.07 0.06 0.06 0.10 0.19 0.15 0.17 0.19 0.15 0.14 0.11 0.08 0.12 0.16 0.15 0.13 0.13 0.12 0.10 0.07 0.07 0.08 0.08 0.09 0.11 0.13 0.15 0.16 0.10 0.09 0.10 0.12 0.11 0.14 0.12 0.11 0.11 0.09
0.01 0.02 0.04 0.07 0.07 0.07 0.07 0.08 0.09 0.17 0.22 0.25 0.24 0.15 0.09 0.07 0.06 0.07 0.10 0.10 0.09 0.10 0.10 0.10 0.09 0.08 0.08 0.08 0.08 0.10 0.15 0.17 0.16 0.09 0.08 0.08 0.10 0.10 0.09 0.09 0.08 0.09 0.09
0.02 0.02 0.03 0.06 0.07 0.09 0.09 0.10 0.14 0.21 0.25 0.25 0.21 0.13 0.09 0.07 0.06 0.06 0.09 0.09 0.10 0.11 0.11 0.12 0.14 0.12 0.09 0.10 0.08 0.09 0.13 0.16 0.15 0.13 0.09 0.08 0.10 0.07 0.06 0.08 0.07 0.08 0.09
0.02 0.02 0.03 0.04 0.05 0.12 0.17 0.17 0.15 0.21 0.19 0.19 0.17 0.12 0.10 0.09 0.07 0.08 0.09 0.09 0.09 0.10 0.09 0.10 0.12 0.14 0.14 0.12 0.09 0.11 0.14 0.15 0.13 0.12 0.09 0.10 0.09 0.05 0.06 0.07 0.07 0.07 0.07
0.01 0.02 0.03 0.04 0.05 0.07 0.11 0.15 0.15 0.17 0.16 0.16 0.15 0.11 0.09 0.08 0.08 0.08 0.07 0.08 0.10 0.11 0.10 0.11 0.13 0.13 0.13 0.13 0.12 0.12 0.11 0.12 0.13 0.13 0.09 0.08 0.07 0.05 0.06 0.06 0.05 0.06 0.06
0.01 0.03 0.04 0.03 0.04 0.05 0.07 0.08 0.10 0.12 0.14 0.14 0.13 0.12 0.11 0.10 0.12 0.10 0.07 0.07 0.07 0.10 0.11 0.10 0.11 0.11 0.12 0.12 0.13 0.13 0.11 0.13 0.16 0.15 0.10 0.06 0.05 0.05 0.07 0.06 0.05 0.06 0.06
0.02 0.01 0.01 0.02 0.03 0.04 0.05 0.05 0.06 0.07 0.09 0.10 0.10 0.10 0.09 0.10 0.11 0.10 0.09 0.09 0.10 0.11 0.11 0.09 0.10 0.10 0.11 0.10 0.11 0.11 0.12 0.12 0.13 0.14 0.12 0.07 0.05 0.07 0.10 0.10 0.07 0.07 0.07
0.01 0.01 0.01 0.01 0.02 0.02 0.03 0.05 0.06 0.04 0.05 0.06 0.08 0.09 0.08 0.09 0.08 0.06 0.06 0.07 0.11 0.11 0.09 0.09 0.10 0.13 0.12 0.11 0.12 0.11 0.10 0.13 0.17 0.14 0.13 0.12 0.10 0.08 0.08 0.10 0.09 0.07 0.06
0.02 0.01 0.01 0.02 0.02 0.03 0.05 0.05 0.05 0.04 0.04 0.05 0.05 0.06 0.05 0.05 0.05 0.06 0.06 0.07 0.09 0.08 0.08 0.08 0.08 0.10 0.12 0.12 0.16 0.14 0.14 0.17 0.14 0.13 0.15 0.14 0.14 0.11 0.09 0.08 0.07 0.05 0.04
0.02 0.01 0.01 0.02 0.03 0.04 0.05 0.05 0.04 0.03 0.04 0.04 0.05 0.04 0.05 0.05 0.05 0.06 0.07 0.08 0.07 0.08 0.08 0.07 0.08 0.08 0.08 0.07 0.10 0.17 0.18 0.13 0.11 0.12 0.14 0.14 0.14 0.16 0.14 0.11 0.09 0.05 0.03
0.02 0.02 0.02 0.02 0.03 0.04 0.07 0.07 0.04 0.03 0.03 0.04 0.03 0.04 0.05 0.04 0.05 0.05 0.07 0.08 0.06 0.07 0.06 0.04 0.06 0.07 0.08 0.07 0.07 0.10 0.11 0.14 0.11 0.12 0.12 0.13 0.10 0.13 0.18 0.16 0.11 0.09 0.05
0.02 0.02 0.02 0.02 0.03 0.04 0.05 0.06 0.04 0.04 0.04 0.03 0.03 0.04 0.05 0.05 0.07 0.06 0.05 0.06 0.06 0.06 0.04 0.04 0.04 0.03 0.04 0.05 0.04 0.05 0.09 0.17 0.13 0.15 0.13 0.13 0.13 0.15 0.15 0.14 0.13 0.13 0.08
0.01 0.01 0.01 0.01 0.01 0.02 0.04 0.04 0.03 0.03 0.03 0.03 0.04 0.05 0.05 0.05 0.06 0.06 0.05 0.06 0.05 0.04 0.04 0.05 0.05 0.04 0.04 0.04 0.04 0.06 0.09 0.15 0.10 0.11 0.13 0.16 0.19 0.17 0.12 0.11 0.13 0.13 0.09
0.01 0.01 0.01 0.01 0.01 0.02 0.04 0.04 0.03 0.03 0.04 0.04 0.03 0.03 0.04 0.05 0.05 0.05 0.06 0.06 0.05 0.04 0.04 0.05 0.05 0.05 0.05 0.05 0.08 0.09 0.08 0.10 0.09 0.09 0.12 0.16 0.21 0.20 0.16 0.13 0.12 0.10 0.08
0.01 0.01 0.01 0.01 0.02 0.02 0.02 0.04 0.04 0.05 0.05 0.05 0.04 0.03 0.04 0.05 0.04 0.04 0.05 0.05 0.03 0.03 0.03 0.03 0.04 0.04 0.05 0.06 0.09 0.09 0.07 0.05 0.07 0.07 0.07 0.11 0.18 0.22 0.22 0.21 0.20 0.14 0.10
0.00 0.01 0.02 0.02 0.02 0.02 0.03 0.04 0.05 0.05 0.04 0.04 0.04 0.05 0.04 0.05 0.04 0.03 0.04 0.04 0.02 0.03 0.03 0.04 0.04 0.04 0.04 0.05 0.05 0.05 0.05 0.04 0.04 0.04 0.05 0.07 0.11 0.16 0.21 0.27 0.31 0.22 0.14
0.01 0.01 0.01 0.02 0.02 0.02 0.02 0.03 0.05 0.05 0.05 0.04 0.04 0.04 0.04 0.03 0.03 0.03 0.02 0.04 0.03 0.03 0.03 0.03 0.04 0.04 0.03 0.04 0.04 0.04 0.03 0.03 0.04 0.04 0.05 0.07 0.08 0.10 0.14 0.20 0.25 0.22 0.19
0.01 0.01 0.01 0.02 0.02 0.02 0.02 0.03 0.04 0.03 0.04 0.04 0.05 0.04 0.03 0.03 0.03 0.03 0.03 0.03 0.03 0.04 0.04 0.03 0.03 0.04 0.03 0.03 0.04 0.04 0.03 0.03 0.02 0.02 0.04 0.06 0.07 0.09 0.10 0.11 0.15 0.17 0.16
0.01 0.01 0.01 0.01 0.02 0.03 0.03 0.03 0.03 0.04 0.05 0.05 0.05 0.05 0.04 0.04 0.03 0.02 0.01 0.02 0.04 0.03 0.04 0.04 0.03 0.04 0.05 0.03 0.04 0.05 0.06 0.05 0.04 0.02 0.02 0.02 0.04 0.06 0.06 0.07 0.09 0.12 0.13
0.01 0.01 0.01 0.01 0.02 0.03 0.03 0.03 0.03 0.04 0.04 0.05 0.05 0.06 0.06 0.04 0.03 0.03 0.03 0.03 0.04 0.04 0.04 0.03 0.02 0.03 0.04 0.05 0.04 0.04 0.04 0.05 0.05 0.04 0.03 0.02 0.02 0.02 0.03 0.03 0.04 0.07 0.09
0.02 0.01 0.01 0.01 0.03 0.07 0.05 0.03 0.03 0.03 0.03 0.04 0.05 0.07 0.06 0.05 0.03 0.03 0.03 0.02 0.03 0.03 0.04 0.03 0.05 0.04 0.03 0.04 0.04 0.04 0.05 0.05 0.05 0.05 0.04 0.03 0.02 0.02 0.02 0.03 0.04 0.05 0.06
0.03 0.02 0.01 0.01 0.04 0.07 0.06 0.02 0.02 0.02 0.03 0.04 0.05 0.07 0.06 0.06 0.05 0.03 0.02 0.02 0.02 0.02 0.03 0.03 0.03 0.03 0.03 0.04 0.04 0.03 0.05 0.05 0.05 0.05 0.04 0.03 0.03 0.02 0.02 0.02 0.03 0.03 0.04
MSLP
1006.73 1005.98 1005.36 1004.84 1004.40 1004.01 1003.64 1003.21 1002.64 1001.77 1000.43 998.44 995.70 992.19 988.08 983.68 979.44 975.90 973.59 972.88 973.88 976.50 980.36 984.95 989.66 993.94 997.36 999.79 1001.27 1002.02 1002.38 1002.67 1003.12 1003.86 1004.87 1006.02 1007.15 1008.11 1008.82 1009.27 1009.53 1009.71 1009.91
1006.72 1005.97 1005.34 1004.81 1004.36 1003.97 1003.60 1003.18 1002.61 1001.72 1000.33 998.24 995.36 991.67 987.35 982.72 978.28 974.56 972.13 971.36 972.37 975.06 979.06 983.83 988.74 993.21 996.83 999.42 1001.04 1001.90 1002.32 1002.65 1003.13 1003.89 1004.90 1006.07 1007.22 1008.20 1008.94 1009.43 1009.72 1009.92 1010.14
1006.62 1005.92 1005.32 1004.80 1004.36 1003.97 1003.60 1003.18 1002.62 1001.77 1000.43 998.41 995.60 992.02 987.80 983.29 978.95 975.31 972.93 972.15 973.11 975.71 979.58 984.20 988.98 993.34 996.87 999.42 1001.02 1001.90 1002.37 1002.74 1003.25 1004.04 1005.06 1006.23 1007.37 1008.36 1009.10 1009.60 1009.90 1010.12 1010.36
1006.46 1005.83 1005.28 1004.80 1004.38 1003.98 1003.61 1003.21 1002.69 1001.91 1000.70 998.90 996.39 993.16 989.36 985.28 981.34 978.03 975.85 975.13 975.99 978.34 981.85 986.03 990.34 994.28 997.47 999.76 1001.22 1002.03 1002.50 1002.90 1003.46 1004.27 1005.30 1006.45 1007.57 1008.52 1009.24 1009.72 1010.04 1010.28 1010.53
1006.26 1005.72 1005.25 1004.82 1004.42 1004.04 1003.66 1003.26 1002.78 1002.11 1001.10 999.62 997.56 994.90 991.74 988.33 985.02 982.23 980.39 979.78 980.50 982.48 985.44 988.96 992.56 995.84 998.47 1000.35 1001.54 1002.22 1002.66 1003.09 1003.68 1004.53 1005.57 1006.69 1007.76 1008.66 1009.34 1009.80 1010.11 1010.36 1010.65
1006.08 1005.64 1005.25 1004.88 1004.51 1004.13 1003.74 1003.34 1002.89 1002.32 1001.54 1000.43 998.89 996.89 994.50 991.90 989.36 987.21 985.78 985.31 985.88 987.42 989.72 992.44 995.20 997.68 999.64 1001.03 1001.90 1002.42 1002.81 1003.26 1003.91 1004.78 1005.82 1006.91 1007.92 1008.75 1009.38 1009.80 1010.11 1010.38 1010.70
1005.98 1005.64 1005.32 1005.01 1004.66 1004.28 1003.87 1003.44 1003.00 1002.53 1001.94 1001.18 1000.15 998.82 997.21 995.44 993.68 992.18 991.18 990.86 991.27 992.37 993.99 995.88 997.79 999.46 1000.76 1001.64 1002.20 1002.57 1002.93 1003.42 1004.11 1005.02 1006.04 1007.09 1008.03 1008.79 1009.36 1009.76 1010.06 1010.35 1010.70
1006.04 1005.76 1005.51 1005.24 1004.91 1004.51 1004.06 1003.60 1003.14 1002.70 1002.26 1001.77 1001.17 1000.40 999.48 998.44 997.39 996.48 995.88 995.68 995.95 996.65 997.66 998.82 999.96 1000.93 1001.65 1002.12 1002.43 1002.70 1003.06 1003.59 1004.33 1005.26 1006.27 1007.25 1008.12 1008.81 1009.31 1009.68 1009.98 1010.30 1010.69
1006.32 1006.07 1005.85 1005.59 1005.26 1004.83 1004.34 1003.82 1003.32 1002.88 1002.51 1002.19 1001.88 1001.53 1001.11 1000.64 1000.14 999.70 999.40 999.32 999.47 999.85 1000.39 1000.99 1001.54 1001.99 1002.29 1002.49 1002.65 1002.88 1003.27 1003.85 1004.64 1005.56 1006.53 1007.44 1008.22 1008.84 1009.28 1009.63 1009.94 1010.28 1010.70
1006.82 1006.57 1006.34 1006.06 1005.71 1005.25 1004.71 1004.14 1003.58 1003.10 1002.74 1002.50 1002.34 1002.24 1002.14 1002.03 1001.90 1001.78 1001.70 1001.69 1001.78 1001.95 1002.17 1002.40 1002.59 1002.72 1002.79 1002.86 1002.99 1003.24 1003.67 1004.30 1005.08 1005.98 1006.88 1007.70 1008.38 1008.92 1009.32 1009.64 1009.95 1010.31 1010.76
1007.53 1007.24 1006.97 1006.66 1006.26 1005.77 1005.19 1004.56 1003.96 1003.44 1003.04 1002.80 1002.69 1002.68 1002.73 1002.81 1002.87 1002.92 1002.96 1003.01 1003.06 1003.14 1003.20 1003.26 1003.30 1003.31 1003.32 1003.39 1003.56 1003.86 1004.34 1004.97 1005.73 1006.55 1007.34 1008.05 1008.63 1009.09 1009.44 1009.75 1010.06 1010.44 1010.89
1008.41 1008.06 1007.73 1007.36 1006.91 1006.37 1005.76 1005.11 1004.48 1003.92 1003.48 1003.20 1003.06 1003.05 1003.12 1003.24 1003.36 1003.48 1003.57 1003.65 1003.71 1003.77 1003.82 1003.86 1003.91 1003.96 1004.04 1004.18 1004.42 1004.78 1005.28 1005.88 1006.56 1007.25 1007.91 1008.49 1008.96 1009.34 1009.66 1009.95 1010.28 1010.66 1011.11
1009.40 1008.99 1008.57 1008.12 1007.62 1007.05 1006.42 1005.77 1005.14 1004.56 1004.11 1003.78 1003.59 1003.52 1003.54 1003.60 1003.70 1003.80 1003.90 1004.00 1004.10 1004.20 1004.32 1004.46 1004.60 1004.78 1004.98 1005.23 1005.55 1005.94 1006.41 1006.93 1007.48 1008.03 1008.53 1008.97 1009.34 1009.65 1009.94 1010.24 1010.57 1010.96 1011.40
1010.45 1009.96 1009.46 1008.93 1008.37 1007.78 1007.15 1006.51 1005.90 1005.36 1004.90 1004.56 1004.32 1004.18 1004.11 1004.10 1004.12 1004.18 1004.25 1004.36 1004.50 1004.68 1004.90 1005.17 1005.46 1005.77 1006.10 1006.44 1006.80 1007.18 1007.58 1007.99 1008.39 1008.77 1009.12 1009.43 1009.72 1009.98 1010.26 1010.56 1010.90 1011.29 1011.72
1011.49 1010.94 1010.36 1009.77 1009.16 1008.54 1007.92 1007.32 1006.75 1006.24 1005.82 1005.47 1005.21 1005.01 1004.87 1004.78 1004.72 1004.71 1004.75 1004.85 1005.03 1005.28 1005.60 1005.97 1006.38 1006.80 1007.21 1007.61 1007.97 1008.30 1008.60 1008.87 1009.12 1009.36 1009.58 1009.79 1010.02 1010.26 1010.54 1010.86 1011.22 1011.62 1012.02
1012.48 1011.89 1011.26 1010.62 1009.96 1009.32 1008.72 1008.15 1007.63 1007.18 1006.79 1006.46 1006.18 1005.95 1005.76 1005.60 1005.47 1005.40 1005.40 1005.48 1005.66 1005.94 1006.31 1006.74 1007.21 1007.68 1008.12 1008.50 1008.83 1009.08 1009.28 1009.44 1009.56 1009.69 1009.82 1009.98 1010.19 1010.44 1010.74 1011.09 1011.47 1011.86 1012.26
1013.38 1012.78 1012.14 1011.46 1010.79 1010.14 1009.54 1009.00 1008.51 1008.10 1007.74 1007.43 1007.15 1006.90 1006.66 1006.44 1006.26 1006.13 1006.08 1006.13 1006.28 1006.54 1006.90 1007.32 1007.78 1008.23 1008.64 1008.98 1009.24 1009.42 1009.54 1009.61 1009.67 1009.74 1009.84 1010.00 1010.22 1010.50 1010.83 1011.20 1011.60 1012.00 1012.37
1014.19 1013.62 1012.98 1012.31 1011.63 1010.99 1010.39 1009.86 1009.39 1008.99 1008.64 1008.32 1008.04 1007.76 1007.49 1007.23 1007.00 1006.82 1006.71 1006.70 1006.78 1006.98 1007.27 1007.62 1008.01 1008.38 1008.72 1008.99 1009.19 1009.32 1009.39 1009.44 1009.48 1009.55 1009.67 1009.86 1010.11 1010.42 1010.78 1011.18 1011.58 1011.97 1012.33
1014.88 1014.37 1013.78 1013.14 1012.49 1011.86 1011.27 1010.74 1010.27 1009.85 1009.49 1009.16 1008.84 1008.53 1008.22 1007.92 1007.64 1007.41 1007.24 1007.15 1007.16 1007.26 1007.44 1007.67 1007.94 1008.21 1008.46 1008.66 1008.80 1008.90 1008.98 1009.04 1009.11 1009.23 1009.39 1009.62 1009.90 1010.24 1010.61 1011.00 1011.39 1011.76 1012.10
1015.47 1015.03 1014.51 1013.93 1013.33 1012.74 1012.16 1011.63 1011.15 1010.71 1010.31 1009.94 1009.58 1009.23 1008.89 1008.55 1008.24 1007.95 1007.72 1007.56 1007.47 1007.45 1007.50 1007.60 1007.74 1007.89 1008.04 1008.17 1008.28 1008.38 1008.48 1008.59 1008.72 1008.89 1009.10 1009.36 1009.66 1009.99 1010.33 1010.68 1011.03 1011.36 1011.69
1015.95 1015.59 1015.15 1014.66 1014.13 1013.58 1013.04 1012.52 1012.03 1011.57 1011.14 1010.72 1010.32 1009.93 1009.56 1009.19 1008.84 1008.53 1008.25 1008.02 1007.83 1007.70 1007.62 1007.59 1007.60 1007.63 1007.69 1007.76 1007.86 1007.97 1008.10 1008.26 1008.45 1008.66 1008.89 1009.14 1009.41 1009.68 1009.96 1010.24 1010.51 1010.80 1011.10
1016.32 1016.04 1015.69 1015.28 1014.83 1014.35 1013.87 1013.38 1012.89 1012.42 1011.96 1011.52 1011.09 1010.68 1010.28 1009.90 1009.54 1009.21 1008.90 1008.62 1008.37 1008.15 1007.96 1007.81 1007.70 1007.63 1007.61 1007.63 1007.70 1007.82 1007.98 1008.17 1008.38 1008.59 1008.80 1009.00 1009.19 1009.36 1009.52 1009.69 1009.88 1010.10 1010.37
1016.60 1016.37 1016.09 1015.76 1015.40 1015.00 1014.58 1014.14 1013.69 1013.23 1012.78 1012.32 1011.89 1011.47 1011.08 1010.71 1010.36 1010.04 1009.72 1009.42 1009.13 1008.84 1008.58 1008.34 1008.13 1007.97 1007.88 1007.86 1007.90 1008.00 1008.15 1008.33 1008.52 1008.69 1008.83 1008.93 1009.00 1009.02 1009.04 1009.08 1009.15 1009.30 1009.52
1016.80 1016.60 1016.37 1016.10 1015.80 1015.49 1015.14 1014.76 1014.37 1013.95 1013.52 1013.09 1012.67 1012.28 1011.90 1011.56 1011.25 1010.95 1010.66 1010.36 1010.06 1009.74 1009.42 1009.12 1008.84 1008.62 1008.46 1008.38 1008.38 1008.44 1008.56 1008.69 1008.82 1008.91 1008.94 1008.91 1008.82 1008.69 1008.56 1008.45 1008.41 1008.47 1008.64
1016.97 1016.76 1016.54 1016.31 1016.07 1015.82 1015.54 1015.23 1014.90 1014.54 1014.15 1013.76 1013.37 1013.01 1012.67 1012.37 1012.09 1011.83 1011.58 1011.30 1011.01 1010.69 1010.35 1010.00 1009.68 1009.40 1009.20 1009.06 1009.00 1009.02 1009.07 1009.13 1009.17 1009.15 1009.07 1008.90 1008.66 1008.39 1008.11 1007.87 1007.71 1007.68 1007.81
1017.14 1016.91 1016.67 1016.45 1016.24 1016.02 1015.80 1015.56 1015.28 1014.97 1014.63 1014.28 1013.93 1013.60 1013.30 1013.03 1012.79 1012.57 1012.35 1012.11 1011.83 1011.52 1011.18 1010.82 1010.48 1010.16 1009.90 1009.72 1009.61 1009.56 1009.54 1009.52 1009.48 1009.37 1009.17 1008.89 1008.54 1008.14 1007.75 1007.40 1007.15 1007.04 1007.09
Thickness
5799 5799 5791 5790 5789 5789 5788 5788 5787 5787 5786 5785 5784 5784 5783 5783 5782 5782 5782 5782 5781 5780 5778 5777 5776 5775 5774 5772 5771 5770 5769 5768 5767 5765 5764 5762 5762 5761 5760 5760 5759 5760 5757
5800 5798 5791 5789 5789 5788 5787 5787 5786 5786 5785 5784 5784 5783 5783 5782 5782 5782 5782 5782 5781 5780 5778 5777 5776 5775 5773 5772 5771 5769 5768 5767 5766 5764 5763 5762 5761 5760 5759 5759 5759 5760 5757
5800 5798 5793 5789 5788 5787 5786 5785 5785 5785 5784 5783 5783 5783 5783 5782 5782 5782 5781 5781 5780 5779 5777 5776 5775 5774 5773 5772 5770 5769 5768 5767 5765 5764 5764 5765 5763 5760 5759 5758 5758 5757 5756
5800 5798 5794 5789 5788 5787 5786 5785 5784 5784 5784 5783 5783 5782 5782 5782 5781 5780 5779 5779 5778 5777 5777 5776 5775 5774 5773 5772 5770 5769 5767 5766 5765 5765 5766 5767 5765 5761 5759 5758 5757 5756 5755
5800 5797 5792 5789 5788 5787 5785 5784 5784 5783 5783 5782 5782 5781 5782 5781 5780 5779 5778 5777 5777 5777 5776 5775 5774 5773 5773 5771 5770 5769 5767 5767 5766 5766 5768 5768 5765 5761 5759 5758 5757 5756 5755
5800 5798 5793 5788 5787 5786 5785 5784 5783 5782 5781 5781 5781 5780 5780 5779 5779 5778 5777 5777 5776 5776 5775 5775 5774 5773 5772 5771 5770 5769 5768 5767 5767 5769 5769 5768 5766 5761 5760 5758 5757 5756 5755
5800 5798 5793 5787 5786 5785 5783 5783 5782 5781 5780 5780 5779 5779 5779 5778 5777 5777 5776 5776 5775 5775 5774 5773 5772 5772 5771 5770 5770 5769 5768 5767 5769 5771 5769 5768 5766 5761 5760 5758 5757 5756 5755
5800 5797 5793 5787 5785 5783 5782 5782 5781 5779 5779 5778 5778 5778 5777 5777 5776 5775 5775 5775 5774 5774 5773 5772 5771 5771 5770 5769 5769 5768 5768 5767 5769 5771 5770 5768 5764 5761 5759 5758 5757 5756 5755
5799 5797 5795 5792 5787 5784 5782 5781 5780 5779 5778 5777 5776 5776 5776 5776 5775 5775 5774 5774 5773 5772 5772 5771 5771 5770 5769 5769 5769 5768 5768 5768 5770 5771 5770 5768 5764 5761 5759 5758 5756 5755 5754
5799 5797 5795 5794 5790 5788 5786 5781 5780 5779 5778 5777 5776 5776 5776 5776 5775 5775 5775 5773 5772 5772 5771 5771 5770 5770 5769 5769 5768 5768 5768 5768 5771 5772 5770 5768 5764 5761 5759 5758 5756 5755 5754
5795 5796 5795 5793 5791 5789 5788 5785 5783 5780 5778 5778 5778 5777 5777 5778 5778 5777 5775 5773 5772 5771 5771 5770 5770 5770 5769 5769 5768 5768 5768 5772 5773 5771 5769 5765 5763 5761 5759 5758 5756 5755 5754
5792 5794 5794 5792 5790 5789 5789 5786 5785 5784 5781 5780 5779 5779 5779 5778 5778 5778 5774 5773 5772 5771 5771 5770 5770 5771 5771 5773 5771 5770 5772 5773 5772 5772 5768 5764 5762 5760 5759 5758 5756 5755 5754
5793 5792 5793 5791 5789 5789 5788 5787 5786 5784 5782 5781 5780 5779 5779 5779 5779 5779 5778 5776 5774 5774 5774 5773 5773 5774 5774 5773 5773 5773 5773 5774 5773 5772 5769 5764 5761 5760 5759 5757 5756 5755 5754
5793 5791 5792 5791 5789 5787 5787 5787 5785 5785 5783 5782 5780 5780 5780 5780 5779 5778 5777 5777 5776 5776 5774 5774 5773 5773 5772 5772 5772 5773 5773 5773 5773 5771 5768 5764 5761 5759 5759 5757 5756 5755 5754
5792 5792 5791 5789 5787 5786 5784 5784 5785 5784 5784 5783 5780 5779 5779 5780 5779 5778 5776 5776 5777 5776 5775 5774 5774 5773 5772 5772 5772 5773 5772 5772 5772 5771 5768 5764 5761 5760 5759 5758 5756 5755 5754
5793 5792 5792 5790 5787 5785 5784 5782 5782 5783 5781 5782 5780 5779 5778 5779 5777 5777 5777 5776 5776 5776 5775 5774 5773 5773 5772 5772 5771 5772 5772 5772 5770 5768 5768 5764 5762 5761 5760 5758 5756 5754 5753
5795 5793 5791 5791 5788 5786 5784 5783 5784 5783 5783 5781 5780 5778 5777 5778 5776 5777 5777 5776 5776 5775 5774 5773 5773 5772 5771 5771 5771 5771 5771 5770 5769 5767 5767 5765 5764 5761 5760 5757 5755 5754 5753
5797 5793 5792 5792 5789 5786 5783 5782 5783 5782 5782 5781 5780 5778 5777 5776 5776 5776 5776 5776 5775 5775 5775 5773 5772 5771 5770 5770 5769 5770 5770 5768 5767 5766 5766 5765 5764 5763 5760 5758 5755 5754 5752
5796 5793 5791 5790 5788 5786 5784 5782 5782 5780 5780 5780 5779 5778 5776 5775 5774 5775 5775 5774 5775 5775 5774 5774 5772 5770 5768 5767 5768 5768 5769 5768 5767 5766 5765 5764 5763 5761 5761 5757 5754 5753 5752
5797 5794 5791 5788 5786 5785 5784 5782 5781 5780 5780 5779 5778 5775 5774 5774 5773 5774 5775 5773 5774 5773 5771 5770 5767 5767 5766 5766 5768 5767 5767 5767 5767 5766 5765 5764 5762 5761 5760 5758 5755 5753 5751
5796 5792 5789 5787 5785 5783 5782 5781 5778 5778 5778 5777 5776 5774 5773 5772 5772 5772 5773 5771 5771 5771 5768 5768 5767 5766 5765 5765 5765 5764 5766 5768 5766 5766 5765 5764 5763 5761 5759 5757 5756 5754 5752
5796 5792 5789 5786 5785 5783 5781 5780 5778 5777 5777 5776 5775 5772 5772 5771 5770 5772 5769 5771 5769 5767 5766 5765 5764 5764 5764 5765 5762 5760 5759 5760 5762 5765 5763 5761 5761 5761 5759 5758 5755 5753 5753
5796 5793 5791 5787 5784 5782 5780 5780 5778 5776 5775 5774 5772 5771 5770 5769 5769 5768 5767 5768 5766 5767 5764 5762 5761 5760 5760 5762 5762 5758 5753 5751 5756 5761 5760 5760 5759 5759 5759 5758 5756 5754 5752
5798 5795 5791 5787 5783 5781 5779 5778 5775 5772 5770 5769 5769 5769 5768 5767 5767 5766 5765 5764 5764 5765 5761 5761 5761 5760 5757 5757 5759 5758 5757 5755 5750 5750 5755 5758 5757 5756 5756 5757 5757 5754 5751
5800 5795 5791 5786 5783 5781 5778 5775 5772 5771 5770 5769 5768 5765 5765 5765 5764 5763 5762 5762 5760 5761 5759 5758 5757 5756 5757 5755 5755 5755 5753 5752 5752 5746 5744 5748 5753 5755 5755 5754 5753 5752 5751
5800 5795 5792 5786 5781 5780 5777 5774 5770 5767 5765 5764 5762 5761 5763 5763 5761 5760 5760 5758 5758 5757 5755 5754 5753 5753 5753 5751 5752 5752 5751 5748 5747 5745 5743 5743 5745 5750 5752 5753 5751 5750 5749